Location: Clyde
(45.1830°S, 169.3170°E)
Time: 18:52:10
(UTC+13:00)

ISS - Pass Details

Date: 02 February 2019
Orbit: 403 x 411 km, 51.6° (Epoch: 17 February)

Event Time Altitude Azimuth Distance (km) Brightness Sun altitude
Exits shadow 04:31:08 31° 35° (NE) 758 -2.6 -18.5°
Maximum altitude 04:31:16 31° 40° (NE) 756 -2.6 -18.5°
Drops below altitude 10° 04:34:17 10° 104° (ESE) 1,498 -0.2 -18.2°
Sets 04:36:31 0° 114° (ESE) 2,365 1.2 -17.9°
